When you browse on this site, cookies collect data to enhance your experience and personalize the content and advertising you see.
Visit our Privacy Policy to learn more. By continuing to use the site, you agree to this use of cookies and data.
  • En España
  • Lista de países
  • Para 7 días
  • Temperatura del agua
  • El tiempo en el mapa
  • Informadores
  • user-avatar
    Iniciar sesión

    Tiempo cada hora Cambridge

    Hoy, 22 Septiembre, Domingo

    Tiempo Temperatura Precipitaciones Viento Presión Humedad
    00:00 +18°C° 0 mm 3 mps 754 mmHg 73%
    01:00 +18°C° 0.1 mm 3 mps 753 mmHg 75%
    02:00 +18°C° 0.1 mm 3 mps 752 mmHg 77%
    03:00 +18°C° 0.1 mm 3 mps 752 mmHg 79%
    04:00 +18°C° 0.1 mm 3 mps 752 mmHg 79%
    05:00 +18°C° 0.1 mm 3 mps 751 mmHg 78%
    06:00 +18°C° 0.1 mm 3 mps 751 mmHg 78%
    07:00 +19°C° 0.3 mm 4 mps 751 mmHg 77%
    08:00 +20°C° 0.3 mm 4 mps 751 mmHg 75%
    09:00 +21°C° 0.3 mm 4 mps 751 mmHg 74%
    10:00 +22°C° 0.2 mm 5 mps 751 mmHg 70%
    11:00 +23°C° 0.2 mm 5 mps 751 mmHg 66%
    12:00 +25°C° 0.2 mm 5 mps 751 mmHg 62%
    13:00 +22°C° 1.2 mm 5 mps 751 mmHg 70%
    14:00 +20°C° 1.2 mm 5 mps 751 mmHg 78%
    15:00 +17°C° 1.2 mm 5 mps 751 mmHg 86%
    16:00 +18°C° 0.6 mm 4 mps 751 mmHg 86%
    17:00 +18°C° 0.6 mm 3 mps 751 mmHg 86%
    18:00 +18°C° 0.6 mm 2 mps 751 mmHg 85%
    19:00 +17°C° 0 mm 3 mps 752 mmHg 85%
    20:00 +17°C° 0 mm 3 mps 752 mmHg 85%
    21:00 +16°C° 0 mm 3 mps 752 mmHg 85%
    22:00 +16°C° 0 mm 3 mps 753 mmHg 86%
    23:00 +14°C° 0 mm 3 mps 753 mmHg 87%

    Mañana, 23 Septiembre, Lunes

    Tiempo Temperatura Precipitaciones Viento Presión Humedad
    00:00 +14°C° 0 mm 3 mps 753 mmHg 88%
    01:00 +14°C° 0 mm 3 mps 753 mmHg 90%
    02:00 +13°C° 0 mm 3 mps 753 mmHg 92%
    03:00 +13°C° 0 mm 4 mps 753 mmHg 94%
    04:00 +13°C° 0 mm 4 mps 754 mmHg 93%
    05:00 +13°C° 0 mm 5 mps 754 mmHg 92%
    06:00 +13°C° 0 mm 5 mps 755 mmHg 91%
    07:00 +14°C° 0 mm 5 mps 755 mmHg 85%
    08:00 +15°C° 0 mm 6 mps 755 mmHg 79%
    09:00 +16°C° 0 mm 6 mps 756 mmHg 73%
    10:00 +17°C° 0 mm 6 mps 756 mmHg 67%
    11:00 +19°C° 0 mm 6 mps 756 mmHg 61%
    12:00 +20°C° 0 mm 6 mps 756 mmHg 54%
    13:00 +20°C° 0 mm 6 mps 756 mmHg 55%
    14:00 +20°C° 0 mm 5 mps 756 mmHg 55%
    15:00 +21°C° 0 mm 5 mps 756 mmHg 55%
    16:00 +20°C° 0 mm 5 mps 756 mmHg 58%
    17:00 +19°C° 0 mm 5 mps 755 mmHg 62%
    18:00 +18°C° 0 mm 4 mps 755 mmHg 65%
    19:00 +16°C° 0.6 mm 5 mps 755 mmHg 72%
    20:00 +16°C° 0.6 mm 6 mps 755 mmHg 79%
    21:00 +15°C° 0.6 mm 6 mps 755 mmHg 85%
    22:00 +15°C° 0.3 mm 6 mps 754 mmHg 86%
    23:00 +15°C° 0.3 mm 6 mps 754 mmHg 87%

    Pasado mañana, 24 Septiembre, Martes

    Tiempo Temperatura Precipitaciones Viento Presión Humedad
    00:00 +16°C° 0.3 mm 6 mps 753 mmHg 88%
    01:00 +16°C° 0.1 mm 6 mps 753 mmHg 88%
    02:00 +16°C° 0.1 mm 6 mps 752 mmHg 88%
    03:00 +17°C° 0.1 mm 5 mps 752 mmHg 88%
    04:00 +17°C° 0.5 mm 5 mps 751 mmHg 89%
    05:00 +17°C° 0.5 mm 5 mps 751 mmHg 89%
    06:00 +17°C° 0.5 mm 6 mps 750 mmHg 90%
    07:00 +17°C° 0.4 mm 6 mps 750 mmHg 89%
    08:00 +17°C° 0.4 mm 7 mps 749 mmHg 87%
    09:00 +17°C° 0.4 mm 8 mps 748 mmHg 86%
    10:00 +17°C° 1.6 mm 7 mps 748 mmHg 85%
    11:00 +17°C° 1.6 mm 7 mps 748 mmHg 84%
    12:00 +16°C° 1.6 mm 6 mps 747 mmHg 84%
    13:00 +17°C° 0.6 mm 6 mps 747 mmHg 80%
    14:00 +17°C° 0.6 mm 5 mps 747 mmHg 77%
    15:00 +19°C° 0.6 mm 5 mps 747 mmHg 73%
    16:00 +17°C° 0 mm 5 mps 747 mmHg 76%
    17:00 +16°C° 0 mm 5 mps 747 mmHg 78%
    18:00 +15°C° 0 mm 5 mps 747 mmHg 80%
    19:00 +15°C° 0.1 mm 5 mps 748 mmHg 82%
    20:00 +15°C° 0.1 mm 5 mps 748 mmHg 84%
    21:00 +15°C° 0.1 mm 5 mps 749 mmHg 86%
    22:00 +15°C° 0.1 mm 5 mps 748 mmHg 86%
    23:00 +14°C° 0.1 mm 5 mps 748 mmHg 85%

    25 Septiembre, Miércoles

    Tiempo Temperatura Precipitaciones Viento Presión Humedad
    00:00 +14°C° 0.1 mm 5 mps 748 mmHg 85%
    01:00 +14°C° 0.1 mm 6 mps 748 mmHg 86%
    02:00 +14°C° 0.1 mm 6 mps 748 mmHg 87%
    03:00 +14°C° 0.1 mm 6 mps 747 mmHg 87%
    04:00 +14°C° 0.5 mm 6 mps 747 mmHg 87%
    05:00 +14°C° 0.5 mm 6 mps 747 mmHg 87%
    06:00 +14°C° 0.5 mm 6 mps 747 mmHg 87%
    07:00 +14°C° 0.1 mm 5 mps 747 mmHg 87%
    08:00 +15°C° 0.1 mm 5 mps 748 mmHg 88%
    09:00 +15°C° 0.1 mm 4 mps 748 mmHg 88%
    10:00 +15°C° 0.1 mm 5 mps 748 mmHg 85%
    11:00 +16°C° 0.1 mm 5 mps 749 mmHg 82%
    12:00 +17°C° 0.1 mm 6 mps 749 mmHg 79%
    13:00 +17°C° 0.2 mm 6 mps 749 mmHg 77%
    14:00 +19°C° 0.2 mm 5 mps 749 mmHg 75%
    15:00 +19°C° 0.2 mm 5 mps 749 mmHg 73%
    16:00 +17°C° 0 mm 5 mps 749 mmHg 77%
    17:00 +17°C° 0 mm 4 mps 750 mmHg 82%
    18:00 +17°C° 0 mm 4 mps 750 mmHg 86%
    19:00 +17°C° 0 mm 4 mps 750 mmHg 87%
    20:00 +15°C° 0 mm 4 mps 750 mmHg 88%
    21:00 +15°C° 0 mm 4 mps 750 mmHg 89%
    22:00 +16°C° 0.6 mm 5 mps 750 mmHg 91%
    23:00 +16°C° 0.6 mm 5 mps 749 mmHg 92%

    26 Septiembre, Jueves

    Tiempo Temperatura Precipitaciones Viento Presión Humedad
    00:00 +16°C° 0.6 mm 5 mps 749 mmHg 94%
    01:00 +16°C° 0.5 mm 5 mps 749 mmHg 91%
    02:00 +16°C° 0.5 mm 5 mps 749 mmHg 89%
    03:00 +16°C° 0.5 mm 5 mps 749 mmHg 87%
    04:00 +15°C° 0 mm 6 mps 749 mmHg 87%
    05:00 +15°C° 0 mm 6 mps 749 mmHg 87%
    06:00 +15°C° 0 mm 7 mps 749 mmHg 86%
    07:00 +15°C° 0.5 mm 6 mps 749 mmHg 88%
    08:00 +15°C° 0.5 mm 6 mps 749 mmHg 89%
    09:00 +16°C° 0.5 mm 5 mps 750 mmHg 91%
    10:00 +16°C° 0.6 mm 6 mps 750 mmHg 85%
    11:00 +17°C° 0.6 mm 6 mps 750 mmHg 80%
    12:00 +18°C° 0.6 mm 7 mps 749 mmHg 75%
    13:00 +18°C° 0.2 mm 7 mps 749 mmHg 71%
    14:00 +19°C° 0.2 mm 6 mps 749 mmHg 68%
    15:00 +19°C° 0.2 mm 6 mps 749 mmHg 64%
    16:00 +17°C° 0.2 mm 6 mps 749 mmHg 69%
    17:00 +16°C° 0.2 mm 5 mps 749 mmHg 73%
    18:00 +15°C° 0.2 mm 5 mps 749 mmHg 78%
    19:00 +14°C° 0 mm 5 mps 750 mmHg 80%
    20:00 +14°C° 0 mm 5 mps 750 mmHg 82%
    21:00 +13°C° 0 mm 5 mps 751 mmHg 84%
    22:00 +13°C° 0 mm 5 mps 750 mmHg 85%
    23:00 +13°C° 0 mm 5 mps 750 mmHg 85%

    27 Septiembre, Viernes

    Tiempo Temperatura Precipitaciones Viento Presión Humedad
    00:00 +12°C° 0 mm 5 mps 750 mmHg 86%
    01:00 +12°C° 0 mm 5 mps 750 mmHg 86%
    02:00 +12°C° 0 mm 4 mps 750 mmHg 87%
    03:00 +12°C° 0 mm 4 mps 750 mmHg 87%
    04:00 +12°C° 0 mm 5 mps 750 mmHg 87%
    05:00 +12°C° 0 mm 5 mps 750 mmHg 87%
    06:00 +12°C° 0 mm 5 mps 750 mmHg 87%
    07:00 +13°C° 0.1 mm 5 mps 750 mmHg 84%
    08:00 +14°C° 0.1 mm 6 mps 751 mmHg 80%
    09:00 +15°C° 0.1 mm 6 mps 751 mmHg 76%
    10:00 +15°C° 0.1 mm 6 mps 751 mmHg 71%
    11:00 +16°C° 0.1 mm 6 mps 751 mmHg 66%
    12:00 +17°C° 0.1 mm 7 mps 751 mmHg 62%
    13:00 +17°C° 0.1 mm 7 mps 751 mmHg 62%
    14:00 +17°C° 0.1 mm 7 mps 751 mmHg 62%
    15:00 +17°C° 0.1 mm 7 mps 751 mmHg 62%
    16:00 +16°C° 0 mm 6 mps 751 mmHg 66%
    17:00 +15°C° 0 mm 5 mps 751 mmHg 70%
    18:00 +14°C° 0 mm 5 mps 751 mmHg 74%
    19:00 +14°C° 0 mm 5 mps 751 mmHg 76%
    20:00 +14°C° 0 mm 6 mps 751 mmHg 78%
    21:00 +14°C° 0 mm 6 mps 751 mmHg 81%
    22:00 +14°C° 0 mm 6 mps 751 mmHg 80%
    23:00 +14°C° 0 mm 6 mps 751 mmHg 80%
    Mostrar más